SCP
0 0 0 0 0 0 0 0 0 0 0 0 0 0 0 0 0 0 0 0 0 0 0 0 0 0 0 0 0 0 0 0 0 0 0 0 0 0
0 0 0 0 0 0 0 0 0 0 0 0 0 0 0 0 0 0 0 0 0 0 0 0 0 0 0 0 0 0 0 0 0 0 0 0 0 0
0 0 0 0 0 0 0 0 0 0 0 0 0 0 0 0 0 0 0 0 0 0 0 0 0 0 0 0 0 0 0 0 0 0 0 0 0 0
0 0 0 0 0 0 0 0 0 0 0 0 0 0 0 0 0 0 0 0 0 0 0 0 0 0 0 0 0 0 0 0 0 0 0 0 0 0
0 0 0 0 0 0 0 0 0 0 0 0 0 0 0 0 0 0 0 0 0 0 0 0 0 0 0 0 0 0 0 0 0 0 0 0 0 0
0 0 0 0 0 0 0 0 0 0 0 0 0 0 0 0 0 0 0 0 0 0 0 0 0 0 0 0 0 0 0 0 0 0 0 0 0 0
0 0 0 0 0 0 0 0 0 0 0 0 0 0 0 0 0 0 0 0 0 0 0 0 0 0 0 0 0 0 0 0 0 0 0 0 0 0
0 0 0 0 0 0 0 0 0 0 0 0 0 0 0 0 0 0 0 0 0 0 0 0 0 0 0 0 0 0 0 0 0 0 0 0 0 0
0 0 0 0 0 0 0 0 0 0 0 0 0 0 0 0 0 0 0 0 0 0 0 0 0 0 0 0 0 0 0 0 0 0 0 0 0 0
0 0 0 0 0 0 0 0 0 0 0 0 0 0 0 0 0 0 0 0 0 0 0 0 0 0 0 0 0 0 0 0 0 0 0 0 0 0
0 0 0 0 0 0 0 0 0 0 0 0 0 0 0 0 0 0 0 0 0 0 0 0 0 0 0 0 0 0 0 0 0 0 0 0 0 0
0 0 0 0 0 0 0 0 0 0 0 0 0 0 0 0 0 0 0 0 0 0 0 0 0 0 0 0 0 0 0 0 0 0 0 0 0 0
0 0 0 0 0 0 0 0 0 0 0 0 0 0 0 0 0 0 0 0 0 0 0 0 0 0 0 0 0 0 0 0 0 0 0 0 0 0
0 0 0 0 0 0 0 0 0 0 0 0 0 0 0 0 0 0 0 0 0 0 0 0 0 0 0 0 0 0 0 0 0 0 0 0 0 0
0 0 0 0 0 0 0 0 0 0 0 0 0 0 0 0 0 0 0 0 0 0 0 0 0 0 0 0 0 0 0 0 0 0 0 0 0 0
0 0 0 0 0 0 0 0 0 0 0 0 0 0 0 0 0 0 0 0 0 0 0 0 0 0 0 0 0 0 0 0 0 0 0 0 0 0
0 0 0 0 0 0 0 0 0 0 0 0 0 0 0 0 0 0 0 0 0 0 0 0 0 0 0 0 0 0 0 0 0 0 0 0 0 0
0 0 0 0 0 0 0 0 0 0 0 0 0 0 0 0 0 0 0 0 0 0 0 0 0 0 0 0 0 0 0 0 0 0 0 0 0 0
0 0 0 0 0 0 0 0 0 0 0 0 0 0 0 0 0 0 0 0 0 0 0 0 0 0 0 0 0 0 0 0 0 0 0 0 0 0
0 0 0 0 0 0 0 0 0 0 0 0 0 0 0 0 0 0 0 0 0 0 0 0 0 0 0 0 0 0 0 0 0 0 0 0 0 0
0 0 0 0 0 0 0 0 0 0 0 0 0 0 0 0 0 0 0 0 0 0 0 0 0 0 0 0 0 0 0 0 0 0 0 0 0 0
0 0 0 0 0 0 0 0 0 0 0 0 0 0 0 0 0 0 0 0 0 0 0 0 0 0 0 0 0 0 0 0 0 0 0 0 0 0
0 0 0 0 0 0 0 0 0 0 0 0 0 0 0 0 0 0 0 0 0 0 0 0 0 0 0 0 0 0 0 0 0 0 0 0 0 0
Wind_Speed
5 5 4 3 3 3 3 3 3 3 3 2 1 1 0 1 2 1 1 3 3 3 3 3 3 2 2 2 2 3 3 4 4 4 5 6 6 7
4 5 5 3 3 3 3 3 3 3 2 1 1 1 0 0 1 1 1 2 2 2 2 2 2 2 2 2 2 2 3 4 4 5 5 7 7 7
5 5 5 4 3 3 3 3 3 3 3 2 1 1 1 1 0 0 1 1 1 2 2 1 1 1 1 2 2 3 3 4 5 5 6 7 8 8
6 6 6 4 5 4 3 4 3 3 3 3 2 1 1 1 0 0 1 1 1 1 1 1 1 1 2 2 3 3 4 4 5 6 6 7 8 9
6 6 6 5 5 4 4 4 3 3 2 3 2 1 1 1 1 1 1 1 1 1 1 1 1 1 2 3 3 3 4 5 5 6 6 7 8 8
5 5 5 6 6 5 4 4 3 3 3 3 2 2 1 1 1 2 1 1 1 1 1 1 2 2 2 3 3 3 4 5 5 6 6 7 8 8
5 5 4 4 4 4 3 4 4 3 3 3 2 2 2 2 2 2 2 1 1 1 1 1 2 2 2 2 3 4 5 6 6 7 8 8 9 9
5 4 4 4 4 4 3 3 3 4 5 4 3 3 3 3 2 2 2 2 2 1 2 2 2 2 2 2 3 5 5 6 7 8 9 9 10 10
5 4 3 3 5 4 4 4 2 2 3 4 4 4 4 3 3 3 3 2 2 1 2 3 2 3 2 3 4 5 6 7 8 9 10 10 11 11
5 5 5 5 5 5 4 3 2 1 2 2 3 3 2 2 2 2 2 2 2 1 2 3 2 3 3 3 4 5 6 7 9 10 10 11 11 12
3 4 5 5 6 7 5 5 3 2 3 3 2 2 2 1 1 2 2 2 2 2 1 2 2 3 4 4 3 5 6 8 10 10 11 11 12 12
3 3 4 5 7 8 6 5 5 4 3 3 3 2 2 2 2 2 2 2 2 2 1 2 2 2 3 3 3 4 5 7 9 10 11 11 11 8
3 3 3 6 7 7 5 4 4 4 3 3 2 2 2 1 1 1 1 2 2 2 1 2 2 2 3 4 4 4 4 5 6 7 8 10 11 9
3 3 3 6 6 6 4 5 5 4 2 3 2 2 2 1 1 1 1 1 2 3 2 2 3 3 3 4 4 4 4 5 6 6 6 9 9 11
3 4 5 6 5 4 4 5 5 3 3 3 3 2 1 1 1 1 0 1 1 2 2 3 3 3 4 5 5 5 5 5 5 6 6 7 7 7
3 5 6 5 3 3 4 3 2 2 2 2 2 1 1 1 1 1 1 1 1 2 2 3 4 5 5 6 6 6 6 5 5 6 7 7 7 6
4 3 3 3 3 2 2 2 1 2 2 2 2 2 2 1 1 1 1 1 2 2 2 2 3 4 6 6 6 6 6 6 6 7 7 8 7 7
4 3 3 3 3 3 3 2 2 2 2 2 2 2 2 2 1 1 1 2 3 3 3 3 3 3 3 4 6 7 6 6 6 7 6 7 8 7
3 3 3 3 3 3 2 2 2 2 2 2 2 2 2 2 2 2 2 2 3 3 3 3 3 3 5 6 4 5 5 6 6 6 6 7 9 8
2 2 3 2 2 2 2 2 2 2 2 2 2 2 2 2 2 3 3 3 3 3 3 3 3 4 5 5 5 5 6 6 6 7 7 7 8 10
2 2 2 2 2 2 2 2 3 3 3 2 2 2 2 2 3 3 3 4 4 4 4 4 4 5 4 4 5 6 5 5 7 7 7 7 8 7
2 2 2 2 2 2 3 3 3 3 3 3 3 3 2 3 3 3 3 3 4 4 4 4 3 3 4 5 7 7 7 6 7 10 10 9 7 6
2 2 2 2 3 3 3 3 4 3 3 3 3 3 3 3 3 3 3 3 4 4 4 4 4 4 4 5 6 7 8 7 6 6 6 8 12 15
Wind_Direction
207 205 210 206 210 213 207 213 215 221 227 204 193 171 296 339 3 339 338 38 34 34 35 34 31 28 17 2 359 353 343 333 322 318 319 318 314 316
206 205 208 208 205 208 210 221 232 233 225 216 205 195 213 348 12 318 350 36 54 57 54 52 41 25 4 353 354 347 336 327 315 312 313 314 311 310
204 207 210 210 206 207 208 212 219 223 226 225 209 214 242 240 232 318 330 335 46 51 34 26 13 349 333 333 328 322 320 319 317 313 310 308 309 308
206 206 211 207 213 212 208 212 214 214 214 215 207 208 242 244 262 292 305 333 351 44 12 5 4 342 327 320 318 318 319 318 314 309 307 305 304 305
207 207 210 206 211 210 210 211 208 204 206 199 202 201 230 220 220 243 251 269 321 345 326 330 349 334 324 321 317 315 313 310 309 308 306 304 303 302
209 210 210 207 211 207 207 209 201 196 187 185 189 198 201 199 219 226 232 243 276 300 293 308 321 311 310 312 313 316 314 309 307 305 304 305 303 301
203 206 206 200 203 203 201 202 194 193 186 182 190 194 196 192 210 219 242 241 259 270 271 274 285 289 290 290 294 308 308 306 304 304 305 303 300 297
192 191 187 183 175 173 179 185 194 195 194 193 201 204 209 210 207 201 213 237 242 218 269 275 274 278 285 287 313 311 306 304 306 308 307 302 298 295
188 184 175 165 164 165 156 150 163 193 206 206 203 210 209 208 203 206 220 250 268 277 270 267 268 272 276 289 304 302 304 305 306 306 304 302 302 299
192 188 181 178 174 166 158 157 168 181 196 208 210 214 211 202 215 223 217 243 271 267 264 265 274 279 286 278 285 291 299 303 306 306 305 305 304 301
188 189 185 180 165 162 165 165 164 160 121 127 122 121 110 129 180 178 190 218 251 249 256 265 279 288 282 271 272 281 291 298 303 305 303 304 305 300
168 175 182 183 172 174 180 177 181 184 170 155 148 150 168 165 175 208 217 222 247 251 222 256 270 291 283 270 284 293 291 294 299 301 302 302 306 301
171 178 177 171 176 179 188 191 182 176 176 173 168 173 180 183 192 213 242 243 246 249 232 258 267 268 268 283 287 289 296 302 304 302 300 302 302 299
172 173 162 159 167 174 182 167 158 163 173 176 179 188 195 200 201 216 246 268 275 269 263 256 257 261 271 278 281 290 297 301 303 304 305 305 298 293
147 143 146 148 148 157 159 161 167 178 179 186 192 196 198 195 184 197 240 256 268 275 270 263 258 262 264 268 280 290 300 299 298 301 305 305 303 302
134 133 132 130 129 128 141 157 181 178 185 188 181 171 164 176 196 212 238 255 268 271 269 266 262 260 263 267 273 282 288 290 298 301 302 300 298 297
142 140 149 152 152 152 152 152 151 155 166 173 173 182 190 198 212 224 245 256 258 269 282 287 281 276 269 269 271 271 279 285 291 301 303 299 296 297
154 162 167 170 172 174 175 172 172 173 176 177 187 196 201 207 217 227 243 247 256 265 272 284 295 292 277 261 244 266 276 285 293 295 294 295 295 297
171 171 177 180 181 181 184 182 184 182 179 190 197 203 210 215 222 232 241 251 257 264 272 276 275 275 282 287 264 233 275 291 294 293 292 291 291 296
181 179 184 185 182 183 185 183 178 178 187 198 201 205 217 220 224 234 241 251 259 266 268 264 259 263 269 284 287 281 267 277 286 290 294 294 288 289
183 186 185 184 185 186 188 188 188 191 194 199 205 210 221 227 232 238 245 249 257 259 262 267 272 277 281 278 274 277 278 268 276 280 290 293 296 295
189 193 194 191 189 192 195 196 199 201 200 206 210 214 223 230 236 242 245 249 254 261 270 278 280 271 261 264 276 285 290 294 285 279 273 266 279 287
201 200 201 198 201 204 205 205 209 212 212 214 215 219 223 232 239 243 247 252 260 265 272 279 280 273 270 271 278 285 291 295 296 296 286 278 275 276